Location: Baggett Branch
(32.6074°N, 97.0167°W)
Time: 08:52:49
(UTC+00:00)

CAS-6 - Visible Passes

Search period start: 09 June 2026 00:00
Search period end: 19 June 2026 00:00
Orbit: 598 x 619 km, 97.8° (Epoch: 8 June)

Date Brightness Start Highest point End Pass type
(mag) Time Alt. Az. Time Alt. Az. Time Alt. Az.
9 Jun ? 04:13:28 46° NNE 04:13:28 46° NNE 04:16:45 10° N visible
10 Jun ? 04:27:24 51° N 04:27:24 51° N 04:30:37 10° N visible
11 Jun ? 04:41:20 43° NW 04:41:20 43° NW 04:44:23 10° NNW visible
12 Jun ? 03:18:20 13° ENE 03:18:30 13° ENE 03:20:25 10° NE visible
12 Jun ? 04:55:16 32° WNW 04:55:16 32° WNW 04:58:00 10° NNW visible
13 Jun ? 03:32:16 19° ENE 03:32:16 19° ENE 03:35:06 10° NNE visible
13 Jun ? 05:09:12 23° WNW 05:09:12 23° WNW 05:11:29 10° NW visible
14 Jun ? 03:46:12 26° ENE 03:46:12 26° ENE 03:49:24 10° NNE visible
14 Jun ? 05:23:08 16° WNW 05:23:08 16° WNW 05:24:44 10° NW visible
15 Jun ? 04:00:08 36° NE 04:00:08 36° NE 04:03:30 10° N visible
15 Jun ? 05:37:04 11° WNW 05:37:04 11° WNW 05:37:33 10° WNW visible
16 Jun ? 04:14:04 49° NNE 04:14:04 49° NNE 04:17:28 10° N visible
17 Jun ? 04:27:59 55° N 04:27:59 55° N 04:31:19 10° N visible
18 Jun ? 04:41:55 45° NW 04:41:55 45° NW 04:45:02 10° NNW visible
